TimePDT,TemperatureF,Dew PointF,Humidity,Sea Level PressureIn,VisibilityMPH,Wind Direction,Wind SpeedMPH,Gust SpeedMPH,PrecipitationIn,Events,Conditions,WindDirDegrees,DateUTC
12:58 AM,46.9,44.4,91,29.92,10.0,South,12.7,-,N/A,,Overcast,170,2013-09-28 07:58:00
1:58 AM,47.3,44.6,90,29.91,10.0,South,10.4,-,N/A,,Overcast,170,2013-09-28 08:58:00
2:58 AM,47.3,45.1,92,29.89,10.0,South,11.5,-,N/A,,Overcast,170,2013-09-28 09:58:00
3:13 AM,48.2,44.6,87,29.86,10.0,South,16.1,-,N/A,,Overcast,170,2013-09-28 10:13:00
3:49 AM,48.2,44.6,87,29.86,10.0,SSE,10.4,-,N/A,,Overcast,160,2013-09-28 10:49:00
3:58 AM,47.8,45.3,91,29.88,10.0,South,10.4,-,N/A,,Overcast,170,2013-09-28 10:58:00
4:10 AM,48.2,44.6,87,29.85,10.0,South,9.2,-,N/A,,Overcast,170,2013-09-28 11:10:00
4:18 AM,48.2,44.6,87,29.85,10.0,South,10.4,-,N/A,,Overcast,170,2013-09-28 11:18:00
4:58 AM,48.0,45.5,91,29.86,10.0,South,10.4,-,N/A,,Overcast,170,2013-09-28 11:58:00
4:59 AM,48.2,46.4,93,29.84,10.0,South,11.5,-,N/A,,Overcast,170,2013-09-28 11:59:00
5:12 AM,48.2,46.4,93,29.84,10.0,South,13.8,-,N/A,,Overcast,180,2013-09-28 12:12:00
5:24 AM,48.2,46.4,93,29.83,10.0,South,15.0,-,N/A,Rain,Light Rain,180,2013-09-28 12:24:00
5:58 AM,47.5,46.4,96,29.84,10.0,South,11.5,-,0.00,Rain,Light Rain,170,2013-09-28 12:58:00
6:07 AM,48.2,46.4,93,29.82,10.0,South,10.4,-,N/A,Rain,Light Rain,180,2013-09-28 13:07:00
6:25 AM,48.2,46.4,93,29.82,10.0,South,10.4,-,N/A,Rain,Light Rain,170,2013-09-28 13:25:00
6:58 AM,47.8,47.3,98,29.83,9.0,SSE,6.9,-,0.04,Rain,Light Rain,160,2013-09-28 13:58:00
7:00 AM,48.2,48.2,100,29.81,9.0,SSE,8.1,-,N/A,Rain,Light Rain,160,2013-09-28 14:00:00
7:07 AM,48.2,48.2,100,29.81,7.0,SSE,8.1,-,N/A,Rain,Light Rain,150,2013-09-28 14:07:00
7:19 AM,48.2,48.2,100,29.81,3.0,SE,9.2,-,N/A,Rain,Rain,130,2013-09-28 14:19:00
7:21 AM,48.2,48.2,100,29.81,2.5,SE,8.1,-,N/A,Rain,Light Rain,130,2013-09-28 14:21:00
7:25 AM,48.2,48.2,100,29.80,2.0,SE,8.1,-,N/A,Rain,Light Rain,130,2013-09-28 14:25:00
7:28 AM,48.2,48.2,100,29.80,2.5,SE,8.1,-,N/A,Rain,Light Rain,130,2013-09-28 14:28:00
7:34 AM,48.2,48.2,100,29.80,3.0,SE,9.2,-,N/A,Rain,Light Rain,140,2013-09-28 14:34:00
7:58 AM,48.7,48.4,99,29.81,9.0,SE,8.1,-,0.06,Rain,Light Rain,140,2013-09-28 14:58:00
8:04 AM,48.2,48.2,100,29.79,9.0,SSE,8.1,-,N/A,Rain,Light Rain,150,2013-09-28 15:04:00
8:33 AM,50.0,48.2,94,29.78,4.0,SE,10.4,-,N/A,Rain,Rain,140,2013-09-28 15:33:00
8:53 AM,50.0,48.2,94,29.77,8.0,SSE,11.5,-,N/A,Rain,Rain,150,2013-09-28 15:53:00
8:58 AM,49.5,48.9,98,29.79,9.0,SSE,12.7,-,0.07,Rain,Light Rain,160,2013-09-28 15:58:00
9:17 AM,50.0,50.0,100,29.76,9.0,SSE,11.5,-,N/A,Rain,Rain,160,2013-09-28 16:17:00
9:51 AM,50.0,50.0,100,29.76,10.0,South,16.1,-,N/A,Rain,Light Rain,170,2013-09-28 16:51:00
9:58 AM,51.1,50.0,96,29.77,10.0,SSE,12.7,23.0,0.04,Rain,Light Rain,160,2013-09-28 16:58:00
10:18 AM,51.8,50.0,94,29.75,10.0,SSE,16.1,-,N/A,Rain,Light Rain,160,2013-09-28 17:18:00
10:20 AM,51.8,50.0,94,29.75,10.0,SSE,13.8,20.7,N/A,Rain,Light Rain,160,2013-09-28 17:20:00
10:32 AM,51.8,50.0,94,29.74,10.0,South,13.8,24.2,N/A,Rain,Light Rain,170,2013-09-28 17:32:00
10:58 AM,52.0,50.7,95,29.75,10.0,SSE,17.3,-,0.04,Rain,Light Rain,160,2013-09-28 17:58:00
11:12 AM,51.8,51.8,100,29.73,10.0,South,20.7,24.2,N/A,Rain,Light Rain,170,2013-09-28 18:12:00
11:39 AM,53.6,51.8,94,29.72,10.0,South,19.6,27.6,N/A,Rain,Light Rain,170,2013-09-28 18:39:00
11:58 AM,54.0,51.6,92,29.73,10.0,South,20.7,28.8,0.01,Rain,Light Rain,170,2013-09-28 18:58:00
12:14 PM,53.6,51.8,94,29.71,10.0,South,17.3,31.1,N/A,Rain,Light Rain,170,2013-09-28 19:14:00
12:25 PM,53.6,51.8,94,29.71,10.0,SSE,17.3,26.5,N/A,Rain,Light Rain,160,2013-09-28 19:25:00
12:29 PM,53.6,53.6,100,29.70,10.0,SSE,17.3,26.5,N/A,Rain,Light Rain,160,2013-09-28 19:29:00
12:32 PM,55.4,53.6,94,29.70,10.0,SSE,18.4,23.0,N/A,Rain,Light Rain,160,2013-09-28 19:32:00
12:33 PM,55.4,53.6,94,29.70,10.0,SSE,20.7,25.3,N/A,Rain,Light Rain,160,2013-09-28 19:33:00
12:48 PM,55.4,53.6,94,29.70,10.0,South,19.6,28.8,N/A,Rain,Light Rain,170,2013-09-28 19:48:00
12:58 PM,55.4,53.2,92,29.70,10.0,SSE,21.9,34.5,0.01,Rain,Light Rain,160,2013-09-28 19:58:00
12:59 PM,55.4,53.6,94,29.69,10.0,South,21.9,34.5,N/A,Rain,Light Rain,170,2013-09-28 19:59:00
1:09 PM,55.4,53.6,94,29.68,10.0,SSE,23.0,29.9,N/A,Rain,Light Rain,160,2013-09-28 20:09:00
1:10 PM,55.4,53.6,94,29.69,10.0,South,20.7,29.9,N/A,Rain,Light Rain,170,2013-09-28 20:10:00
1:58 PM,55.4,52.9,91,29.70,10.0,SSE,20.7,25.3,0.01,Rain,Light Rain,160,2013-09-28 20:58:00
2:58 PM,55.0,53.1,93,29.68,10.0,SSE,16.1,23.0,0.04,Rain,Light Rain,160,2013-09-28 21:58:00
3:29 PM,55.4,53.6,94,29.66,10.0,SSE,16.1,23.0,N/A,Rain,Light Rain,150,2013-09-28 22:29:00
3:58 PM,54.7,53.1,94,29.66,10.0,SSE,15.0,23.0,0.04,Rain,Light Rain,150,2013-09-28 22:58:00
4:01 PM,55.4,53.6,94,29.65,10.0,SSE,15.0,23.0,N/A,Rain,Rain,160,2013-09-28 23:01:00
4:50 PM,53.6,51.8,94,29.64,5.0,SSE,12.7,-,N/A,Rain,Rain,160,2013-09-28 23:50:00
4:52 PM,53.6,51.8,94,29.65,6.0,SSE,12.7,-,N/A,Rain,Rain,160,2013-09-28 23:52:00
4:58 PM,54.0,52.7,95,29.65,8.0,South,15.0,-,0.09,Rain,Light Rain,170,2013-09-28 23:58:00
5:04 PM,53.6,51.8,94,29.64,10.0,SSE,18.4,24.2,N/A,Rain,Light Rain,160,2013-09-29 00:04:00
5:10 PM,53.6,51.8,94,29.64,10.0,SSE,17.3,24.2,N/A,Rain,Light Rain,160,2013-09-29 00:10:00
5:12 PM,53.6,51.8,94,29.63,10.0,SSE,15.0,24.2,N/A,Rain,Light Rain,160,2013-09-29 00:12:00
5:58 PM,53.6,51.4,92,29.62,10.0,SSE,16.1,-,0.02,Rain,Light Rain,160,2013-09-29 00:58:00
6:58 PM,52.9,50.9,93,29.58,10.0,SE,18.4,24.2,0.02,Rain,Light Rain,140,2013-09-29 01:58:00
7:10 PM,53.6,50.0,88,29.56,10.0,SSE,18.4,24.2,N/A,,Scattered Clouds,150,2013-09-29 02:10:00
7:58 PM,53.6,49.5,86,29.55,10.0,SE,13.8,-,0.00,,Mostly Cloudy,140,2013-09-29 02:58:00
8:04 PM,53.6,50.0,88,29.54,10.0,SE,16.1,-,N/A,Rain,Light Rain,140,2013-09-29 03:04:00
8:34 PM,53.6,50.0,88,29.51,10.0,SE,17.3,23.0,N/A,,Mostly Cloudy,140,2013-09-29 03:34:00
8:41 PM,53.6,48.2,82,29.52,10.0,SSE,17.3,24.2,N/A,Rain,Light Rain,150,2013-09-29 03:41:00
8:58 PM,53.6,49.5,86,29.52,10.0,SSE,20.7,27.6,0.00,Rain,Light Rain,150,2013-09-29 03:58:00
9:32 PM,53.6,50.0,88,29.49,10.0,SSE,17.3,27.6,N/A,,Mostly Cloudy,150,2013-09-29 04:32:00
9:39 PM,53.6,50.0,88,29.50,10.0,SE,16.1,25.3,N/A,Rain,Light Rain,140,2013-09-29 04:39:00
9:58 PM,53.2,49.6,88,29.48,10.0,SSE,17.3,-,0.01,Rain,Light Rain,150,2013-09-29 04:58:00
9:59 PM,53.6,50.0,88,29.48,10.0,SSE,19.6,23.0,N/A,,Mostly Cloudy,150,2013-09-29 04:59:00
10:00 PM,53.6,50.0,88,29.48,10.0,SSE,16.1,23.0,N/A,Rain,Light Rain,150,2013-09-29 05:00:00
10:13 PM,53.6,50.0,88,29.49,10.0,SSE,16.1,24.2,N/A,Rain,Light Rain,160,2013-09-29 05:13:00
10:30 PM,53.6,50.0,88,29.47,10.0,SSE,18.4,25.3,N/A,,Overcast,150,2013-09-29 05:30:00
10:44 PM,53.6,50.0,88,29.46,10.0,SSE,18.4,24.2,N/A,Rain,Light Rain,160,2013-09-29 05:44:00
10:57 PM,53.6,50.0,88,29.48,10.0,South,17.3,24.2,N/A,Rain,Rain,170,2013-09-29 05:57:00
10:58 PM,53.4,49.6,87,29.48,10.0,South,17.3,24.2,0.03,Rain,Rain,170,2013-09-29 05:58:00
11:00 PM,53.6,50.0,88,29.49,8.0,South,17.3,24.2,N/A,Rain,Rain,170,2013-09-29 06:00:00
11:05 PM,53.6,50.0,88,29.49,5.0,South,16.1,24.2,N/A,Rain,Heavy Rain,180,2013-09-29 06:05:00
11:11 PM,53.6,50.0,88,29.48,5.0,South,12.7,-,N/A,Rain,Light Rain,180,2013-09-29 06:11:00
11:17 PM,53.6,50.0,88,29.49,10.0,South,13.8,-,N/A,Rain,Light Rain,170,2013-09-29 06:17:00
11:23 PM,53.6,50.0,88,29.49,9.0,South,13.8,-,N/A,Rain,Rain,180,2013-09-29 06:23:00
11:27 PM,53.6,50.0,88,29.49,8.0,South,12.7,-,N/A,Rain,Light Rain,180,2013-09-29 06:27:00
11:33 PM,53.6,50.0,88,29.48,9.0,South,12.7,-,N/A,Rain,Light Rain,180,2013-09-29 06:33:00
11:43 PM,53.6,51.8,94,29.48,9.0,South,12.7,-,N/A,Rain,Light Rain,170,2013-09-29 06:43:00
11:56 PM,53.6,51.8,94,29.49,4.0,South,13.8,-,N/A,Rain,Rain,180,2013-09-29 06:56:00
11:58 PM,53.1,51.3,94,29.50,4.0,South,13.8,-,0.14,Rain,Light Rain,190,2013-09-29 06:58:00
11:59 PM,53.6,51.8,94,29.49,4.0,South,15.0,-,N/A,Rain,Light Rain,190,2013-09-29 06:59:00